[[{"header":{"parameterUnit":"m.s-1","parameterCategory":1,"la1":30.2991,"la2":30.254,"lo1":-89.0895,"lo2":-89.0444,"dy":0.0017,"dx":0.0017,"nx":28,"ny":28,"refTime":"2025-11-20T03:00:00:Z","depth":0,"parameterNumber":2,"parameterNumberName":"U-component_of_WINDS"},"data":[0,0,0,0,0,0,0,0,0,0,0,0,0,0,0,0,0,0,0,0,0,0,0,0,0,0,0,0,0,0,0,0,0,0,0,0,0,0,0,0,0,0,0,0,0,0,0,0,0,0,0,0,0,0,0,0,0,0,-1.6907,-1.6907,0,-1.692,-1.692,-1.692,-1.6934,-1.6934,-1.6934,-1.6935,-1.6947,-1.6947,-1.6947,0,0,0,0,0,0,0,0,0,0,0,0,0,-1.6893,-1.6893,-1.6907,-1.6907,-1.6907,-1.692,-1.692,-1.692,-1.6934,-1.6934,-1.6935,-1.6935,-1.6947,-1.6947,-1.6947,0,0,0,0,0,0,0,0,0,0,0,0,0,-1.6902,-1.6893,-1.6907,-1.6916,-1.6917,-1.692,-1.692,-1.692,-1.6934,-1.6934,-1.6935,-1.6935,-1.6947,-1.6947,-1.6947,-1.6942,0,0,-1.6948,-1.6948,0,0,0,0,0,0,0,0,-1.6901,-1.6902,-1.6914,-1.6915,-1.6916,-1.6926,-1.6919,-1.6927,-1.6934,-1.6927,-1.6935,-1.6935,-1.6939,-1.694,-1.6942,-1.6942,-1.6943,-1.6948,-1.6948,-1.6948,-1.6948,0,0,0,0,0,0,0,-1.6901,-1.6902,-1.6912,-1.6914,-1.6916,-1.6919,-1.692,-1.6921,-1.6931,-1.6928,-1.6929,-1.693,-1.694,-1.6942,-1.6942,-1.6943,-1.6948,-1.6948,-1.6948,-1.6948,-1.6938,-1.6938,0,0,0,0,0,0,-1.6899,-1.6901,-1.6912,-1.6912,-1.6909,-1.6919,-1.692,-1.6922,-1.6931,-1.6933,-1.693,-1.6931,-1.6941,-1.6942,-1.6943,-1.6936,-1.6948,-1.6948,-1.6948,-1.6938,-1.6938,-1.6938,0,0,0,0,0,0,-1.6899,-1.69,-1.6911,-1.6907,-1.6909,-1.6918,-1.6921,-1.6922,-1.6924,-1.6933,-1.6935,-1.693,-1.6941,-1.6942,-1.6942,-1.6937,-1.6948,-1.6948,-1.6939,-1.6938,-1.6938,-1.6923,0,0,0,0,0,0,-1.6898,-1.69,-1.6898,-1.6907,-1.6909,-1.691,-1.692,-1.6922,-1.6924,-1.6926,-1.6933,-1.6935,-1.6942,-1.6941,-1.6942,-1.6937,-1.6948,-1.6939,-1.6939,-1.6938,-1.6924,-1.6922,-1.692,0,0,0,0,0,-1.6898,-1.6894,-1.6898,-1.6899,-1.6907,-1.691,-1.6911,-1.6919,-1.6924,-1.6922,-1.6928,-1.6935,-1.6937,-1.6941,-1.6942,-1.6937,-1.694,-1.6939,-1.6938,-1.6925,-1.6922,-1.692,0,0,0,0,0,0,-1.6884,-1.6895,-1.69,-1.6899,-1.6903,-1.6912,-1.6911,-1.6917,-1.692,-1.6921,-1.693,-1.6932,-1.6929,-1.6933,-1.6937,-1.6932,-1.6939,-1.6939,-1.6929,-1.6927,-1.6925,-1.6924,-1.6948,0,0,0,0,0,-1.6881,-1.6883,-1.6892,-1.689,-1.6892,-1.6901,-1.6902,-1.6908,-1.6913,-1.6915,-1.692,-1.6924,-1.6926,-1.6927,-1.6929,-1.6925,-1.6926,-1.6922,-1.692,-1.6918,-1.6917,-1.6914,-1.6912,-1.6935,-1.6935,-1.6935,0,0,-1.6875,-1.6881,-1.6881,-1.6888,-1.6892,-1.6892,-1.6902,-1.6903,-1.6903,-1.6915,-1.6914,-1.6918,-1.6923,-1.692,-1.6919,-1.6923,-1.6911,-1.6917,-1.6916,-1.6916,-1.6913,-1.6911,-1.6909,-1.6934,-1.6934,-1.6934,0,0,-1.6863,-1.6869,-1.6867,-1.6871,-1.6877,-1.6882,-1.6882,-1.689,-1.6893,-1.6892,-1.69,-1.69,-1.6903,-1.6906,-1.6908,-1.6896,-1.6902,-1.6896,-1.6887,-1.6883,-1.6881,-1.688,-1.6874,-1.6872,-1.6896,-1.6896,-1.6896,0,-1.6855,-1.6856,-1.6865,-1.6865,-1.6867,-1.6877,-1.6875,-1.6878,-1.6884,-1.6885,-1.6889,-1.6892,-1.6896,-1.6894,-1.689,-1.6892,-1.6891,-1.6895,-1.6881,-1.6879,-1.6878,-1.6873,-1.6871,-1.6895,-1.6895,-1.6895,-1.6895,0,-1.6845,-1.6845,-1.6843,-1.6849,-1.685,-1.6849,-1.6857,-1.6857,-1.6863,-1.6867,-1.6866,-1.6871,-1.6874,-1.6874,-1.6879,-1.6871,-1.6873,-1.6879,-1.6887,-1.6875,-1.687,-1.6868,-1.6894,-1.6894,-1.6894,-1.6894,0,0,-1.6826,-1.6835,-1.6834,-1.6836,-1.6843,-1.6843,-1.6842,-1.6844,-1.6844,-1.6847,-1.6845,-1.6847,-1.6852,-1.6854,-1.686,-1.6857,-1.6845,-1.6863,-1.6863,-1.6858,-1.6835,-1.6829,-1.6827,-1.6849,-1.6849,-1.6849,-1.6834,0,-1.6815,-1.6813,-1.682,-1.6816,-1.6816,-1.6825,-1.6824,-1.6827,-1.6832,-1.6832,-1.6836,-1.6837,-1.6844,-1.6845,-1.6843,-1.6847,-1.684,-1.6849,-1.6847,-1.6846,-1.6844,-1.6825,-1.6819,-1.6805,-1.6832,-1.6832,-1.6832,0,-1.6802,-1.6804,-1.68,-1.6805,-1.6806,-1.6804,-1.6806,-1.6807,-1.681,-1.6813,-1.6815,-1.6821,-1.6819,-1.6827,-1.6823,-1.6829,-1.6828,-1.683,-1.683,-1.6829,-1.6838,-1.6822,-1.6801,-1.6798,-1.6829,-1.6829,-1.6829,0,-1.6787,-1.6789,-1.6786,-1.6788,-1.6794,-1.6793,-1.6795,-1.6799,-1.68,-1.6801,-1.6801,-1.6803,-1.6803,-1.6804,-1.681,-1.6815,-1.6805,-1.6814,-1.6806,-1.6806,-1.6803,-1.6803,-1.678,-1.6805,-1.6805,-1.6805,-1.6805,0,-1.6773,-1.677,-1.6779,-1.6778,-1.6774,-1.6782,-1.6778,-1.6781,-1.6784,-1.6782,-1.6791,-1.6789,-1.6798,-1.6796,-1.6801,-1.6797,-1.6797,-1.6799,-1.68,-1.6797,-1.6797,-1.6797,-1.6797,-1.6804,-1.6805,-1.6805,-1.6805,0,-1.6756,-1.6762,-1.676,-1.6766,-1.6767,-1.6764,-1.6768,-1.6767,-1.6771,-1.6769,-1.6768,-1.6775,-1.6774,-1.678,-1.678,-1.6783,-1.6776,-1.6779,-1.6775,-1.6775,-1.6767,-1.6767,-1.6742,-1.6738,-1.6766,-1.6766,-1.6766,0,-1.6746,-1.6744,-1.6749,-1.6749,-1.6751,-1.675,-1.675,-1.6757,-1.6757,-1.676,-1.6757,-1.6757,-1.6757,-1.6754,-1.6759,-1.6758,-1.6761,-1.6752,-1.6761,-1.6758,-1.6759,-1.6759,-1.6758,-1.675,-1.675,-1.675,-1.6749,0,-1.6729,-1.6731,-1.6731,-1.6732,-1.6732,-1.6733,-1.6734,-1.6733,-1.6741,-1.674,-1.6739,-1.6738,-1.6738,-1.6737,-1.6737,-1.6739,-1.6745,-1.6747,-1.6744,-1.6741,-1.6738,-1.6738,-1.6768,-1.6747,-1.6747,-1.6747,-1.6747,-1.6748,-1.6714,-1.6712,-1.6714,-1.6714,-1.6715,-1.6716,-1.6714,-1.6717,-1.6716,-1.6716,-1.6721,-1.6718,-1.672,-1.6721,-1.6722,-1.672,-1.6724,-1.6722,-1.6721,-1.672,-1.6717,-1.6739,-1.672,-1.672,-1.672,-1.672,-1.6721,0,-1.6695,-1.6697,-1.6696,-1.6698,-1.6696,-1.6702,-1.6704,-1.6702,-1.67,-1.6701,-1.67,-1.6698,-1.6696,-1.67,-1.6699,-1.6696,-1.6699,-1.6696,-1.6695,-1.6695,-1.6715,-1.6716,-1.6693,-1.6693,-1.6693,-1.6693,-1.6693,-1.6693,-1.6685,-1.6681,-1.6684,-1.6679,-1.6681,-1.6679,-1.6679,-1.6679,-1.668,-1.6677,-1.6675,-1.6678,-1.668,-1.6678,-1.6677,-1.6678,-1.6676,-1.6672,-1.6674,-1.6692,-1.6694,-1.6697,-1.6698,-1.6672,-1.6672,-1.6654,-1.6654,-1.6654]},{"header":{"parameterUnit":"m.s-1","parameterCategory":1,"la1":30.2991,"la2":30.254,"lo1":-89.0895,"lo2":-89.0444,"dy":0.0017,"dx":0.0017,"nx":28,"ny":28,"refTime":"2025-11-20T03:00:00:Z","depth":0,"parameterNumber":3,"parameterNumberName":"V-component_of_WINDS"},"data":[0,0,0,0,0,0,0,0,0,0,0,0,0,0,0,0,0,0,0,0,0,0,0,0,0,0,0,0,0,0,0,0,0,0,0,0,0,0,0,0,0,0,0,0,0,0,0,0,0,0,0,0,0,0,0,0,0,0,2.6675,2.6675,0,2.6701,2.6701,2.6702,2.6682,2.6681,2.6681,2.668,2.6707,2.6709,2.671,0,0,0,0,0,0,0,0,0,0,0,0,0,2.661,2.6611,2.6675,2.6675,2.6675,2.6701,2.6701,2.6702,2.6682,2.6681,2.668,2.6679,2.6707,2.6708,2.671,0,0,0,0,0,0,0,0,0,0,0,0,0,2.6637,2.6612,2.6675,2.6669,2.6669,2.6701,2.6701,2.6702,2.6683,2.6681,2.668,2.6679,2.6706,2.6708,2.671,2.675,0,0,2.6717,2.6718,0,0,0,0,0,0,0,0,2.6636,2.664,2.6669,2.6669,2.6669,2.6687,2.6689,2.6718,2.6683,2.6677,2.668,2.6678,2.6701,2.6704,2.6712,2.6751,2.6753,2.6718,2.6719,2.672,2.6721,0,0,0,0,0,0,0,2.6634,2.6639,2.6685,2.667,2.667,2.6666,2.6668,2.6694,2.6696,2.6678,2.6676,2.668,2.6701,2.671,2.6712,2.6753,2.6718,2.672,2.6721,2.6722,2.6831,2.6832,0,0,0,0,0,0,2.6632,2.6637,2.6684,2.6686,2.6649,2.6668,2.6671,2.6683,2.6696,2.6697,2.6681,2.6679,2.6706,2.671,2.6713,2.6763,2.672,2.6722,2.6723,2.6829,2.6831,2.6833,0,0,0,0,0,0,2.6631,2.6637,2.6683,2.6661,2.6667,2.667,2.6684,2.6684,2.6692,2.6698,2.6699,2.6689,2.6706,2.671,2.6742,2.6764,2.6723,2.6725,2.6827,2.683,2.6832,2.6862,0,0,0,0,0,0,2.6629,2.6636,2.6651,2.6662,2.6668,2.6711,2.6685,2.6685,2.6696,2.6694,2.6706,2.6707,2.6705,2.6739,2.6744,2.6766,2.6727,2.6825,2.6828,2.6831,2.6859,2.6865,2.687,0,0,0,0,0,2.6627,2.6658,2.6652,2.6657,2.6686,2.6712,2.6716,2.6713,2.6698,2.6713,2.6718,2.6706,2.676,2.6742,2.6748,2.6771,2.6824,2.6827,2.6831,2.6857,2.6864,2.687,0,0,0,0,0,0,2.6648,2.6659,2.6652,2.6687,2.6699,2.6709,2.6728,2.672,2.6736,2.6733,2.6729,2.6732,2.6767,2.6772,2.6751,2.6812,2.679,2.6795,2.6808,2.6815,2.682,2.6819,2.6729,0,0,0,0,0,2.6657,2.6677,2.6685,2.6715,2.6722,2.6724,2.6735,2.6732,2.6744,2.6749,2.6755,2.6768,2.6788,2.6801,2.682,2.686,2.6864,2.6879,2.6885,2.6889,2.6894,2.6919,2.6926,2.6844,2.6844,2.6844,0,0,2.6675,2.6684,2.6696,2.672,2.6729,2.6751,2.6728,2.6751,2.6768,2.6752,2.6784,2.6789,2.6803,2.6841,2.6857,2.6846,2.6918,2.6893,2.6897,2.6899,2.6923,2.6931,2.6938,2.6846,2.6846,2.6845,0,0,2.672,2.6727,2.6755,2.6765,2.6779,2.6781,2.6788,2.6799,2.6803,2.6834,2.6824,2.6844,2.6878,2.689,2.69,2.6953,2.6944,2.6959,2.6988,2.7013,2.7019,2.7025,2.7047,2.7054,2.6963,2.6963,2.6963,0,2.6741,2.6774,2.677,2.6795,2.6807,2.6795,2.6824,2.6833,2.6853,2.6862,2.6849,2.6894,2.6902,2.6944,2.6957,2.6965,2.6974,2.6958,2.7018,2.7024,2.703,2.705,2.7058,2.6965,2.6965,2.6965,2.6964,0,2.68,2.6823,2.6843,2.6864,2.6878,2.6905,2.6907,2.6921,2.6918,2.6922,2.6956,2.6965,2.6988,2.6997,2.6992,2.7039,2.7032,2.7019,2.6996,2.7039,2.7059,2.7067,2.6968,2.6967,2.6967,2.6966,0,0,2.6858,2.6878,2.6886,2.6897,2.6913,2.6931,2.6959,2.6981,2.6995,2.7009,2.7034,2.7064,2.7054,2.7065,2.7063,2.7084,2.7129,2.7069,2.7069,2.7082,2.7184,2.7195,2.7204,2.7123,2.7125,2.7126,2.7184,0,2.6906,2.6954,2.6953,2.6998,2.7021,2.7011,2.7035,2.7049,2.7053,2.7074,2.7079,2.7102,2.7085,2.7092,2.7113,2.7119,2.715,2.7115,2.7148,2.7149,2.7147,2.7214,2.7225,2.7279,2.7191,2.7192,2.7193,0,2.6968,2.6986,2.7034,2.705,2.706,2.7081,2.7104,2.7123,2.7139,2.7141,2.7156,2.7151,2.7181,2.7157,2.72,2.7176,2.7189,2.7195,2.7197,2.7202,2.7175,2.7223,2.7296,2.7305,2.7205,2.7204,2.7203,0,2.701,2.7046,2.708,2.7089,2.7107,2.7124,2.7132,2.7147,2.7162,2.7181,2.7191,2.7213,2.7226,2.7244,2.7246,2.7228,2.729,2.7265,2.7295,2.7295,2.7309,2.7309,2.7388,2.7314,2.7314,2.7314,2.7314,0,2.7064,2.7095,2.7099,2.712,2.7155,2.7154,2.7189,2.7196,2.721,2.7233,2.7225,2.7248,2.7248,2.7272,2.7273,2.731,2.7315,2.7319,2.732,2.7321,2.7321,2.7332,2.7329,2.7316,2.7316,2.7315,2.7315,0,2.7116,2.712,2.7158,2.7173,2.7178,2.7203,2.7217,2.7238,2.7243,2.7273,2.728,2.7288,2.7315,2.7319,2.7351,2.7352,2.7398,2.7393,2.7393,2.7393,2.7423,2.7421,2.7514,2.7527,2.7442,2.7443,2.7443,0,2.7152,2.7176,2.7194,2.721,2.722,2.7244,2.726,2.7261,2.7277,2.7299,2.7318,2.7345,2.7367,2.7412,2.7421,2.7447,2.7444,2.7475,2.7448,2.745,2.7448,2.7448,2.7451,2.7481,2.7481,2.7482,2.7483,0,2.7216,2.7218,2.724,2.7265,2.7283,2.7302,2.732,2.7333,2.7337,2.7356,2.7385,2.7402,2.7436,2.7464,2.7489,2.7499,2.7493,2.7491,2.75,2.7503,2.7503,2.7506,2.741,2.7489,2.7489,2.7488,2.7488,2.7488,2.7263,2.7285,2.7302,2.7329,2.7343,2.736,2.7382,2.739,2.7414,2.7442,2.7441,2.7474,2.7492,2.7526,2.7538,2.7564,2.7554,2.7566,2.7569,2.7573,2.7577,2.7497,2.7568,2.7568,2.7568,2.7568,2.7568,0,2.7329,2.7341,2.7365,2.7391,2.7412,2.7404,2.7424,2.7443,2.7472,2.7489,2.7512,2.7547,2.7574,2.7587,2.7614,2.7633,2.7632,2.7641,2.7641,2.7644,2.7583,2.7574,2.7642,2.7642,2.7642,2.7642,2.7642,2.7642,2.7366,2.7404,2.7408,2.7453,2.7465,2.7497,2.7509,2.7527,2.7541,2.758,2.7604,2.7612,2.7628,2.7657,2.7684,2.7686,2.7698,2.771,2.7712,2.7655,2.7648,2.7641,2.7632,2.7712,2.7712,2.7771,2.7772,2.7772]}]]